Regional Weather Roundup
Issued by NWS Green Bay, WI

Home | Current Version | Previous Version | Text Only | Print | Product List | Glossary On
Versions: 1 2 3 4 5 6 7 8 9 10 11 12 13 14 15 16 17 18 19 20 21 22 23 24 25 26 27 28 29 30 31 32 33 34 35 36 37 38 39 40 41 42 43 44 45 46 47 48 49 50
000
ASUS43 KGRB 271711
RWRGRB

NORTH-CENTRAL AND NORTHEAST WISCONSIN REGIONAL WEATHER ROUNDUP
NATIONAL WEATHER SERVICE GREEN BAY WI
1200 PM CDT MON MAR 27 2017

WIZ005-009-010>012-018-019-271800-
NORTH CENTRAL WISCONSIN

CITY           SKY/WX    TMP DP  RH WIND       PRES   REMARKS
IRONWOOD       CLOUDY    40  35  83 CALM      29.97S
MANITOWISH WTR CLOUDY    38  36  94 N3        29.94S
ARBOR VITAE    CLOUDY    39  36  87 N5        29.94R
EAGLE RIVER    CLOUDY    38  35  87 N5        29.93S
LAND O LAKES   CLOUDY    36  33  89 NE3       29.96R
RHINELANDER    CLOUDY    40  37  89 NE6       29.94R
PHILLIPS       CLOUDY    39  35  86 N5        29.94S
ANTIGO         CLOUDY    37  35  94 CALM      29.94R
TOMAHAWK       CLOUDY    38  35  89 CALM      29.94S
MERRILL        CLOUDY    38  36  93 CALM      29.95R
$$

WIZ013-073-271800-
NORTHEAST WISCONSIN

CITY           SKY/WX    TMP DP  RH WIND       PRES   REMARKS
IRON MOUNTAIN  CLOUDY    39  33  79 NW6       29.92S
MARINETTE        N/A    N/A N/A N/A MISG        N/A
OCONTO         CLOUDY    39  36  87 CALM      29.95S
$$

WIZ017-030-035>037-045-271800-
CENTRAL WISCONSIN

CITY           SKY/WX    TMP DP  RH WIND       PRES   REMARKS
MEDFORD        CLOUDY    37  34  89 CALM      29.94R
WAUSAU         CLOUDY    39  35  86 W3        29.93R
MOSINEE        NOT AVBL
MARSHFIELD     CLOUDY    39  35  86 CALM      29.94R
WISC RAPIDS    CLOUDY    44  40  85 CALM      29.95S
STEVENS POINT  CLOUDY    39  38  97 CALM      29.94S
WAUPACA        CLOUDY    45  39  82 NE3       29.94F
SHAWANO        CLOUDY    42  37  82 CALM      29.95S
CLINTONVILLE   CLOUDY    41  37  87 CALM      29.94S
WAUTOMA        CLOUDY    43  40  89 S5        29.95R
$$

WIZ038-039-048-051-271800-
FOX VALLEY

CITY           SKY/WX    TMP DP  RH WIND       PRES   REMARKS
NWS GREEN BAY  CLOUDY    41  37  86 NE6       29.95F
APPLETON       CLOUDY    39  39 100 VRB5      29.93S
OSHKOSH        CLOUDY    41  38  89 E6        29.94S
FOND DU LAC    CLOUDY    44  38  79 S3        29.94F
$$

WIZ022-050-052-271800-
EAST CENTRAL WISCONSIN

CITY           SKY/WX    TMP DP  RH WIND       PRES   REMARKS
EPHRAIM        CLOUDY    36  35  99 N8        29.94F
WASHINGTON ISL CLOUDY    36  33  90 N5        29.94F
STURGEON BAY   NOT AVBL
MANITOWOC      CLOUDY    39  37  92 E8        29.96S FOG
SHEBOYGAN      CLOUDY    42  37  82 CALM      29.95F
$$

LMZ563-521-522-541>543-271800-
LAKESHORE

STATION/POSITION TIME  TEMP    WIND        PRES    VSBY  WAVE
                       AIR SEA DIR/SP/G                  HT/PER
                 (UTC) (F)     (DEG/KT/KT) (MB)    (MI)  (FT/S)
SHEBOYGAN LKSHOR 1600   39      70/  3/  4 1014.8R
KEWAUNEE LKSHORE 1642   37     170/  2/  3 1014.1S
NORTHPORT PIER   1640   35     310/  5/  9 1014.6R
CHAMBERS ISLAND  1630   35      40/  4/  4 1014.2S
MENOMINEE LKSHOR 1642   35     100/  5/  6 1013.6F
$$



USA.gov is the U.S. government's official web portal to all federal, state and local government web resources and services.